This demonstration page uses our WeatherBlox Daily Observations layout. Learn more.

Left ArrowRight Arrow

36.19886, -115.1175

Hourly Observations for November 30, 2020

Temp ( °F °C ) Dew Point ( °F °C ) Humidity (%) Winds ( mph kmh ) Pressure ( in mb ) Visibility ( mi km ) Precip ( " mm )
12:53 am 00:53 Clear 45 7.2 17 -8.3 33 33 WNW 3 6 30.28 1025 10 16 N/A
1:53 am 01:53 Clear 46 7.8 16 -8.9 30 30 WNW 8 13 30.27 1025 10 16 N/A
2:53 am 02:53 Clear 45 7.2 17 -8.3 33 33 N N/A 30.27 1025 10 16 N/A
3:53 am 03:53 Clear 41 5 18 -7.8 39 39 WNW 7 11 30.28 1025 10 16 N/A
4:53 am 04:53 Clear 44 6.7 18 -7.8 35 35 N N/A 30.28 1026 10 16 N/A
5:53 am 05:53 Clear 41 5 18 -7.8 39 39 WNW 5 7 30.30 1026 10 16 N/A
6:53 am 06:53 Sunny 41 5 19 -7.2 41 41 W 7 11 30.32 1027 10 16 N/A
7:53 am 07:53 Sunny 47 8.3 19 -7.2 33 33 WNW 5 7 30.33 1027 10 16 N/A
8:53 am 08:53 Sunny 53 11.7 17 -8.3 24 24 N N/A 30.33 1027 10 16 N/A
9:53 am 09:53 Sunny 57 13.9 17 -8.3 21 21 E 3 6 30.32 1027 10 16 N/A
10:53 am 10:53 Sunny 60 15.6 17 -8.3 19 19 N N/A 30.30 1026 10 16 N/A
11:53 am 11:53 Sunny 62 16.7 15 -9.4 16 16 N N/A 30.27 1025 10 16 N/A
12:53 pm 12:53 Sunny 63 17.2 14 -10 15 15 N N/A 30.24 1024 10 16 N/A
1:53 pm 13:53 Sunny 64 17.8 14 -10 14 14 N N/A 30.21 1023 10 16 N/A
2:53 pm 14:53 Sunny 64 17.8 13 -10.6 13 13 VRB 5 7 30.18 1022 10 16 N/A
3:53 pm 15:53 Sunny 64 17.8 13 -10.6 13 13 S 3 6 30.18 1022 10 16 N/A
4:53 pm 16:53 Clear 61 16.1 14 -10 16 16 N N/A 30.18 1022 10 16 N/A
5:53 pm 17:53 Clear 56 13.3 17 -8.3 22 22 WNW 3 6 30.21 1023 10 16 N/A
6:53 pm 18:53 Clear 53 11.7 21 -6.1 28 28 W 7 11 30.21 1023 10 16 N/A
7:53 pm 19:53 Clear 50 10 20 -6.7 30 30 NNW 7 11 30.20 1023 10 16 N/A
8:53 pm 20:53 Clear 48 8.9 18 -7.8 30 30 WNW 7 11 30.17 1022 10 16 N/A
9:53 pm 21:53 Clear 46 7.8 16 -8.9 30 30 NW 7 11 30.17 1022 10 16 N/A
10:53 pm 22:53 Clear 45 7.2 16 -8.9 31 31 NW 3 6 30.17 1022 10 16 N/A
11:53 pm 23:53 Clear 45 7.2 18 -7.8 34 34 N N/A 30.16 1022 10 16 N/A

Powered by AerisWeather